TimeWGT,TemperatureF,Dew PointF,Humidity,Sea Level PressureIn,VisibilityMPH,Wind Direction,Wind SpeedMPH,Gust SpeedMPH,PrecipitationIn,Events,Conditions,WindDirDegrees,DateUTC
12:00 AM,32,25,65,30.38,31,Calm,Calm,,,,Overcast,,2012-10-30 03:00:00
12:20 AM,32.0,23.0,69,30.39,6.2,Calm,Calm,-,N/A,,Mostly Cloudy,0,2012-10-30 03:20:00
12:50 AM,32.0,24.8,75,30.39,6.2,NNW,1.2,-,N/A,,Overcast,330,2012-10-30 03:50:00
1:20 AM,32.0,24.8,75,30.39,6.2,NNE,1.2,-,N/A,,Mostly Cloudy,30,2012-10-30 04:20:00
1:50 AM,32.0,24.8,75,30.39,6.2,NNW,1.2,-,N/A,,Mostly Cloudy,330,2012-10-30 04:50:00
2:20 AM,32.0,24.8,75,30.36,6.2,North,2.3,-,N/A,,Mostly Cloudy,350,2012-10-30 05:20:00
2:50 AM,32.0,24.8,75,30.36,6.2,North,2.3,-,N/A,,Overcast,350,2012-10-30 05:50:00
3:00 AM,32,25,65,30.35,25,NW,2.3,,,,Overcast,320,2012-10-30 06:00:00
3:20 AM,32.0,24.8,75,30.36,6.2,NNW,3.5,-,N/A,,Overcast,330,2012-10-30 06:20:00
3:50 AM,32.0,24.8,75,30.36,6.2,NNW,3.5,-,N/A,,Overcast,340,2012-10-30 06:50:00
4:20 AM,32.0,24.8,75,30.36,6.2,Calm,Calm,-,N/A,,Overcast,0,2012-10-30 07:20:00
4:50 AM,32.0,23.0,69,30.36,6.2,Calm,Calm,-,N/A,,Mostly Cloudy,0,2012-10-30 07:50:00
5:20 AM,32.0,23.0,69,30.36,6.2,Calm,Calm,-,N/A,,Mostly Cloudy,0,2012-10-30 08:20:00
5:50 AM,32.0,23.0,69,30.33,6.2,NW,2.3,-,N/A,,Overcast,320,2012-10-30 08:50:00
6:00 AM,31,24,68,30.33,25,Calm,Calm,,,,Overcast,,2012-10-30 09:00:00
6:20 AM,32.0,24.8,75,30.33,6.2,NW,3.5,-,N/A,,Mostly Cloudy,320,2012-10-30 09:20:00
6:50 AM,30.2,24.8,80,30.33,6.2,NW,1.2,-,N/A,,Mostly Cloudy,320,2012-10-30 09:50:00
7:50 AM,30.2,23.0,75,30.33,6.2,Calm,Calm,-,N/A,,Mostly Cloudy,0,2012-10-30 10:50:00
8:50 AM,32.0,24.8,75,30.30,6.2,North,3.5,-,N/A,,Mostly Cloudy,10,2012-10-30 11:50:00
9:00 AM,31,26,75,30.30,22,North,3.5,,,,Overcast,0,2012-10-30 12:00:00
9:50 AM,32.0,24.8,75,30.30,6.2,NE,3.5,-,N/A,,Overcast,40,2012-10-30 12:50:00
10:50 AM,32.0,26.6,80,30.30,6.2,NE,4.6,-,N/A,,Overcast,40,2012-10-30 13:50:00
11:50 AM,30.2,26.6,86,30.27,6.2,NNE,6.9,-,N/A,,Overcast,20,2012-10-30 14:50:00
12:00 PM,31,26,76,30.27,25,NNE,6.9,,,,Overcast,20,2012-10-30 15:00:00
12:50 PM,32.0,26.6,80,30.27,6.2,NNE,6.9,-,N/A,,Mostly Cloudy,30,2012-10-30 15:50:00
1:50 PM,30.2,26.6,86,30.27,6.2,NE,8.1,-,N/A,,Mostly Cloudy,40,2012-10-30 16:50:00
2:50 PM,30.2,26.6,86,30.24,6.2,NE,9.2,-,N/A,,Mostly Cloudy,40,2012-10-30 17:50:00
3:00 PM,31,26,76,30.23,28,NNE,13.8,,,,Scattered Clouds,20,2012-10-30 18:00:00
3:50 PM,30.2,24.8,80,30.24,6.2,NE,6.9,-,N/A,,Mostly Cloudy,40,2012-10-30 18:50:00
4:50 PM,30.2,24.8,80,30.24,6.2,NE,5.8,-,N/A,,Scattered Clouds,40,2012-10-30 19:50:00
5:50 PM,28.4,24.8,86,30.24,6.2,NE,6.9,-,N/A,,Scattered Clouds,50,2012-10-30 20:50:00
6:00 PM,29,24,74,30.23,31,North,13.8,,,,,10,2012-10-30 21:00:00
6:50 PM,28.4,23.0,80,30.24,6.2,NNE,11.5,-,N/A,,Scattered Clouds,20,2012-10-30 21:50:00
7:50 PM,26.6,19.4,74,30.21,6.2,NE,11.5,-,N/A,,Scattered Clouds,50,2012-10-30 22:50:00
8:50 PM,26.6,19.4,74,30.21,6.2,NE,13.8,-,N/A,,Partly Cloudy,40,2012-10-30 23:50:00
9:00 PM,28,19,58,30.19,31,NNE,15.0,,,,,30,2012-10-31 00:00:00
9:20 PM,26.6,17.6,69,30.18,6.2,NE,15.0,-,N/A,,Partly Cloudy,40,2012-10-31 00:20:00
9:50 PM,26.6,17.6,69,30.18,6.2,NE,15.0,-,N/A,,Partly Cloudy,40,2012-10-31 00:50:00
10:20 PM,26.6,17.6,69,30.18,6.2,NE,16.1,-,N/A,,Unknown,50,2012-10-31 01:20:00
10:50 PM,26.6,17.6,69,30.18,6.2,NE,17.3,-,N/A,,Partly Cloudy,40,2012-10-31 01:50:00
11:20 PM,26.6,17.6,69,30.18,6.2,NE,15.0,-,N/A,,Unknown,40,2012-10-31 02:20:00
11:50 PM,26.6,17.6,69,30.18,6.2,NE,15.0,-,N/A,,Partly Cloudy,50,2012-10-31 02:50:00